Radioactive Concentration measured by Seawater Radiation Monitor near Fukushima Daiichi Nuclear Power Station
Date,Time,Cs137(Bq/L),Cs134(Bq/L),Total β(Bq/L)
2019/06/27,00:00,0.16,ND,13
2019/06/27,00:10,0.17,ND,14
2019/06/27,00:20,0.18,ND,12
2019/06/27,00:30,0.18,ND,11
2019/06/27,00:40,0.19,ND,12
2019/06/27,00:50,0.19,ND,12
2019/06/27,01:00,0.21,ND,9.5
2019/06/27,01:10,0.20,ND,11
2019/06/27,01:20,0.20,ND,15
2019/06/27,01:30,0.18,ND,14
2019/06/27,01:40,0.16,ND,15
2019/06/27,01:50,0.15,ND,14
2019/06/27,02:00,0.14,ND,14
2019/06/27,02:10,0.15,ND,13
2019/06/27,02:20,0.17,ND,12
2019/06/27,02:30,0.18,ND,15
2019/06/27,02:40,0.18,ND,14
2019/06/27,02:50,0.18,ND,16
2019/06/27,03:00,0.19,ND,16
2019/06/27,03:10,0.15,ND,17
2019/06/27,03:20,0.14,ND,13
2019/06/27,03:30,0.16,ND,8.8
2019/06/27,03:40,0.18,ND,9.5
2019/06/27,03:50,0.18,ND,10
2019/06/27,04:00,0.19,ND,ND
2019/06/27,04:10,0.21,ND,ND
2019/06/27,04:20,0.23,ND,9.7
2019/06/27,04:30,0.16,ND,14
2019/06/27,04:40,0.25,ND,14
2019/06/27,04:50,0.18,ND,12
2019/06/27,05:00,0.23,ND,14
2019/06/27,05:10,0.23,ND,14
2019/06/27,05:20,0.25,ND,12
2019/06/27,05:30,0.24,ND,11
2019/06/27,05:40,0.23,ND,11
2019/06/27,05:50,0.21,ND,11
2019/06/27,06:00,0.19,ND,10
2019/06/27,06:10,0.20,ND,12
2019/06/27,06:20,0.18,ND,13
2019/06/27,06:30,0.18,ND,16
2019/06/27,06:40,0.16,ND,15
2019/06/27,06:50,0.12,ND,15
2019/06/27,07:00,0.15,ND,15
2019/06/27,07:10,0.15,ND,13
2019/06/27,07:20,0.16,ND,11
2019/06/27,07:30,0.17,ND,10
2019/06/27,07:40,0.17,ND,9.6
2019/06/27,07:50,0.12,ND,11
2019/06/27,08:00,0.24,ND,9.5
2019/06/27,08:10,0.24,ND,12
2019/06/27,08:20,0.26,ND,15
2019/06/27,08:30,0.25,ND,14
2019/06/27,08:40,0.25,ND,14
2019/06/27,08:50,0.24,ND,12
2019/06/27,09:00,0.20,ND,14
2019/06/27,09:10,0.18,ND,14
2019/06/27,09:20,0.18,ND,12
2019/06/27,09:30,0.19,ND,11
2019/06/27,09:40,0.21,ND,13
2019/06/27,09:50,0.22,ND,12
2019/06/27,10:00,0.22,ND,11
2019/06/27,10:10,0.22,ND,11
2019/06/27,10:20,0.21,ND,11
2019/06/27,10:30,0.20,ND,11
2019/06/27,10:40,0.18,ND,ND
2019/06/27,10:50,0.12,ND,9.2
2019/06/27,11:00,0.18,ND,11
2019/06/27,11:10,0.17,ND,12
2019/06/27,11:20,0.18,ND,10
2019/06/27,11:30,0.094,ND,13
2019/06/27,11:40,0.17,ND,13
2019/06/27,11:50,0.18,ND,14
2019/06/27,12:00,0.072,ND,14
2019/06/27,12:10,0.13,ND,14
2019/06/27,12:20,0.12,ND,13
2019/06/27,12:30,0.11,ND,12
2019/06/27,12:40,0.081,ND,12
2019/06/27,12:50,0.063,ND,11
2019/06/27,13:00,0.070,ND,ND
2019/06/27,13:10,0.079,ND,ND
2019/06/27,13:20,0.065,ND,ND
2019/06/27,13:30,ND,ND,ND
2019/06/27,13:40,0.055,ND,ND
2019/06/27,13:50,0.052,ND,ND
2019/06/27,14:00,ND,ND,9.6
2019/06/27,14:10,ND,ND,10
2019/06/27,14:20,0.054,ND,11
2019/06/27,14:30,0.076,ND,11
2019/06/27,14:40,0.071,ND,12
2019/06/27,14:50,0.082,ND,13
2019/06/27,15:00,0.11,ND,11
2019/06/27,15:10,0.090,ND,11
2019/06/27,15:20,0.091,ND,12
2019/06/27,15:30,0.090,ND,11
2019/06/27,15:40,0.091,ND,9.5
2019/06/27,15:50,0.088,ND,ND
2019/06/27,16:00,0.079,ND,ND
2019/06/27,16:10,0.085,ND,ND
2019/06/27,16:20,0.079,ND,ND
2019/06/27,16:30,0.096,ND,9.5
2019/06/27,16:40,0.091,ND,8.8
2019/06/27,16:50,0.099,ND,9.6
2019/06/27,17:00,0.11,ND,9.6
2019/06/27,17:10,0.11,ND,11
2019/06/27,17:20,0.10,ND,12
2019/06/27,17:30,0.10,ND,11
2019/06/27,17:40,0.11,ND,8.8
2019/06/27,17:50,0.12,ND,9.7
2019/06/27,18:00,0.13,ND,ND
2019/06/27,18:10,0.14,ND,9.0
2019/06/27,18:20,0.14,ND,ND
2019/06/27,18:30,0.15,ND,9.3
2019/06/27,18:40,0.15,ND,14
2019/06/27,18:50,0.16,ND,13
2019/06/27,19:00,0.14,ND,13
2019/06/27,19:10,0.15,ND,13
2019/06/27,19:20,0.14,ND,19
2019/06/27,19:30,0.12,ND,16
2019/06/27,19:40,0.11,ND,14
2019/06/27,19:50,0.11,ND,16
2019/06/27,20:00,0.12,ND,19
2019/06/27,20:10,0.12,ND,18
2019/06/27,20:20,0.13,ND,13
2019/06/27,20:30,0.15,ND,14
2019/06/27,20:40,0.17,ND,14
2019/06/27,20:50,0.17,ND,13
2019/06/27,21:00,0.18,ND,16
2019/06/27,21:10,0.17,ND,17
2019/06/27,21:20,0.18,ND,16
2019/06/27,21:30,0.20,ND,16
2019/06/27,21:40,0.19,ND,14
2019/06/27,21:50,0.16,ND,14
2019/06/27,22:00,0.16,ND,13
2019/06/27,22:10,0.17,ND,12
2019/06/27,22:20,0.17,ND,12
2019/06/27,22:30,0.15,ND,11
2019/06/27,22:40,0.16,ND,12
2019/06/27,22:50,0.18,ND,11
2019/06/27,23:00,0.19,ND,10
2019/06/27,23:10,0.20,ND,12
2019/06/27,23:20,0.22,ND,15
2019/06/27,23:30,0.22,ND,18
2019/06/27,23:40,0.23,ND,17
2019/06/27,23:50,0.24,ND,17
